Simultaneous Nadir Overpasses (SNOs) Predictions

Prediction of SNOs between AQUA and METOP-B Satellite Orbit:

Table of predicted SNOs for the next 14.0 days since TLE Epoch: 7/1/2013
Index Date (AQUA) Time (AQUA) Lat,Lon (AQUA) SZA (AQUA ) Date (METOP-B) Time (METOP-B) Lat,Lon (METOP-B) SZA (METOP-B ) Distance(km) Time Diff (sec)
1 07/04/2013 01:51:01 -73.75, -33.24 129.09 07/04/2013 01:50:23 -73.72, -33.23 129.11 2.83 38
2 07/04/2013 02:40:26 73.80, 134.30 50.97 07/04/2013 02:41:01 73.82, 134.35 50.99 3.24 35
3 07/06/2013 18:02:43 -73.70, 83.93 128.88 07/06/2013 18:02:02 -73.72, 83.86 128.85 2.78 41
4 07/06/2013 18:52:08 73.79,-108.61 51.23 07/06/2013 18:52:40 73.82,-108.58 51.25 2.79 32
5 07/09/2013 09:24:10 73.68, 33.63 51.40 07/09/2013 09:23:00 73.68, 33.52 51.42 3.30 70
6 07/09/2013 10:13:33 -73.78,-158.93 128.49 07/09/2013 10:13:40 -73.76,-158.95 128.50 1.75 7
7 07/09/2013 11:03:03 74.17, 7.86 51.94 07/09/2013 11:04:12 74.15, 9.33 51.86 44.69 69
8 07/12/2013 00:44:44 -73.75, -16.65 128.18 07/12/2013 00:43:58 -73.73, -16.61 128.19 2.48 46
9 07/12/2013 01:34:07 73.80, 150.88 51.89 07/12/2013 01:34:36 73.81, 150.93 51.89 1.49 29
10 07/14/2013 15:15:03 -73.72, 125.83 127.82 07/14/2013 15:14:15 -73.73, 125.84 127.80 1.29 48
11 07/14/2013 16:04:26 73.82, -66.72 52.29 07/14/2013 16:04:53 73.81, -66.64 52.28 2.43 27




NCC Satellite Simultaneous Nadir Overpasses (SNOs) Prediction Service
